FW0708 Weather Reports


Display with metric or nautical units.
time (UTC)temp
F
wind
direction
speed
MPH
gust
MPH
rain 1hr
in
rain 24hr
in
rain mn
in
humidity
%
barometer
mb
20260906100037 59 108 0.0 0.0 0.01 0.01 0.01 97 1017.6
20260906094535 59 108 0.0 0.0 0.01 0.01 0.01 96 1017.7
20260906093134 60 108 0.0 0.0 0.01 0.01 0.01 97 1017.7
20260906091533 60 108 0.0 1.0 0.00 0.00 0.00 97 1017.7
20260906090033 60 108 0.0 3.0 0.00 0.00 0.00 96 1017.8
20260906084531 60 107 0.0 1.0 0.00 0.00 0.00 96 1017.9
20260906083030 61 107 0.0 1.0 0.00 0.00 0.00 96 1017.9
20260906081529 61 107 0.0 1.0 0.00 0.00 0.00 96 1017.7
20260906080030 61 107 0.0 1.0 0.00 0.00 0.00 96 1017.7
20260906074528 61 107 0.0 1.0 0.00 0.01 0.00 96 1017.6
20260906073027 61 107 0.0 0.0 0.00 0.01 0.00 96 1017.7
20260906071527 61 107 0.0 2.0 0.00 0.01 0.00 96 1017.7
20260906070026 61 27 0.0 0.0 0.00 0.01 0.00 96 1017.7
20260906064533 61 27 0.0 1.0 0.00 0.01 0.00 95 1017.8
20260906063024 61 27 0.0 0.0 0.00 0.01 0.00 95 1017.8
20260906061525 62 27 0.0 0.0 0.00 0.01 0.00 95 1018.1
20260906060021 62 27 0.0 0.0 0.00 0.01 0.00 95 1017.7
20260906054528 63 27 0.0 1.0 0.00 0.01 0.00 95 1017.3
20260906053018 63 27 0.0 0.0 0.00 0.01 0.00 95 1017.5
20260906051514 63 27 0.0 1.0 0.00 0.01 0.00 94 1017.4
20260906050011 64 27 0.0 1.0 0.00 0.01 0.00 94 1017.3
20260906044510 65 22 0.0 0.0 0.00 0.01 0.01 95 1017.4
20260906043020 65 22 0.0 1.0 0.00 0.01 0.01 95 1017.4
20260906041509 65 24 0.0 2.0 0.00 0.01 0.01 95 1017.0
20260906040009 65 71 0.0 2.0 0.00 0.01 0.01 96 1016.8
20260906034508 64 53 1.0 3.0 0.00 0.01 0.01 96 1017.0
20260906033008 64 4 0.0 3.0 0.00 0.01 0.01 96 1017.0
20260906031509 64 4 0.0 4.0 0.00 0.01 0.01 96 1017.0
20260906030007 63 25 0.0 2.0 0.00 0.01 0.01 95 1016.7
20260906024508 63 24 0.0 1.0 0.00 0.01 0.01 95 1016.9
20260906023006 63 24 0.0 3.0 0.00 0.01 0.01 95 1016.7
20260906021510 63 50 0.0 2.0 0.00 0.01 0.01 95 1016.7
20260906020006 63 50 0.0 0.0 0.00 0.01 0.01 94 1016.6
20260906014513 63 50 0.0 0.0 0.00 0.01 0.01 93 1016.5
20260906013007 63 49 0.0 3.0 0.00 0.01 0.01 92 1016.4
20260906011606 64 50 0.0 1.0 0.00 0.01 0.01 90 1016.4
20260906010057 65 50 0.0 1.0 0.00 0.01 0.01 90 1016.4
20260906004556 66 50 0.0 0.0 0.00 0.01 0.01 88 1016.4
20260906003055 67 50 0.0 0.0 0.00 0.01 0.01 88 1016.5
20260906001554 68 50 0.0 2.0 0.00 0.01 0.01 89 1016.6
20260906000054 68 50 0.0 1.0 0.00 0.01 0.01 89 1016.7
20260905234554 68 50 0.0 3.0 0.00 0.01 0.01 90 1016.5
20260905233053 68 54 3.0 9.0 0.00 0.01 0.01 90 1016.4
20260905231552 68 47 3.0 9.0 0.00 0.01 0.01 89 1016.4
20260905230052 68 40 5.0 11.0 0.00 0.01 0.01 88 1016.7
20260905224551 69 38 4.0 10.0 0.00 0.01 0.01 86 1016.7
20260905223054 69 61 3.0 10.0 0.00 0.01 0.01 86 1016.7
20260905221550 70 48 2.0 10.0 0.00 0.01 0.01 85 1016.8
20260905220050 70 40 3.0 10.0 0.00 0.01 0.01 86 1016.8
20260905214550 70 25 3.0 11.0 0.00 0.01 0.01 85 1017.0
20260905213049 71 54 5.0 12.0 0.00 0.01 0.01 84 1016.9
20260905211548 71 37 4.0 7.0 0.00 0.01 0.01 83 1017.0
20260905210048 71 33 4.0 11.0 0.00 0.01 0.01 83 1017.1
20260905204547 72 42 4.0 10.0 0.00 0.01 0.01 83 1017.1
20260905203048 72 42 3.0 11.0 0.00 0.01 0.01 82 1017.2
20260905201547 72 52 3.0 10.0 0.00 0.01 0.01 82 1017.3
20260905200050 72 336 4.0 10.0 0.00 0.01 0.01 80 1017.4
20260905194547 72 12 4.0 12.0 0.00 0.01 0.01 79 1017.2
20260905193050 72 32 6.0 12.0 0.00 0.01 0.01 78 1017.3
20260905191546 72 22 2.0 8.0 0.00 0.01 0.01 80 1017.2
20260905190054 72 56 2.0 8.0 0.00 0.01 0.01 80 1017.1
20260905184545 72 2 3.0 9.0 0.00 0.01 0.01 82 1017.2
20260905183042 71 8 4.0 11.0 0.00 0.01 0.01 83 1017.2
20260905181546 71 56 3.0 11.0 0.00 0.01 0.01 85 1017.3
20260905180044 71 31 3.0 11.0 0.00 0.01 0.01 86 1017.3
20260905174541 71 349 1.0 8.0 0.00 0.01 0.01 86 1017.4
20260905173038 72 10 0.0 5.0 0.00 0.01 0.01 85 1017.4
20260905171546 72 25 3.0 8.0 0.00 0.01 0.01 83 1017.5
20260905170038 73 28 2.0 7.0 0.00 0.01 0.01 82 1017.7
20260905164536 73 341 1.0 3.0 0.00 0.01 0.01 80 1017.7
20260905163034 73 347 1.0 4.0 0.00 0.01 0.01 82 1017.6
20260905161529 72 22 1.0 5.0 0.00 0.01 0.01 86 1017.5
20260905160029 71 24 3.0 6.0 0.00 0.01 0.01 89 1017.3
20260905154522 70 15 1.0 5.0 0.00 0.01 0.01 91 1017.4
20260905153022 69 54 2.0 7.0 0.00 0.01 0.01 94 1017.3
20260905151514 68 60 1.0 5.0 0.00 0.01 0.01 96 1017.4
20260905150010 68 52 0.0 5.0 0.00 0.01 0.01 97 1017.3
20260905144516 67 17 1.0 4.0 0.00 0.01 0.01 97 1017.1
20260905143006 67 12 1.0 4.0 0.00 0.01 0.01 98 1017.0
20260905141504 67 37 1.0 4.0 0.00 0.01 0.01 98 1016.8
20260905140000 67 56 1.0 4.0 0.00 0.01 0.01 98 1016.9
20260905134558 67 73 0.0 0.0 0.00 0.01 0.01 98 1017.1
20260905133056 67 73 0.0 0.0 0.00 0.01 0.01 98 1016.9
20260905131612 67 73 0.0 0.0 0.00 0.01 0.01 98 1016.9
20260905130050 67 73 0.0 0.0 0.00 0.01 0.01 98 1016.8
20260905124548 66 73 0.0 0.0 0.00 0.01 0.01 98 1016.4
20260905123045 66 73 0.0 1.0 0.00 0.01 0.01 98 1016.3
20260905121542 66 73 0.0 1.0 0.00 0.01 0.01 98 1016.0
20260905120039 66 73 0.0 0.0 0.00 0.01 0.01 98 1015.8
20260905114543 66 73 0.0 2.0 0.00 0.01 0.01 98 1015.4
20260905113037 66 73 0.0 1.0 0.00 0.01 0.01 98 1015.2
20260905111542 66 73 0.0 3.0 0.00 0.01 0.01 98 1015.1
20260905110036 66 56 0.0 4.0 0.00 0.01 0.01 98 1015.0
20260905104539 66 25 0.0 1.0 0.00 0.01 0.01 98 1015.1
20260905103038 66 25 0.0 0.0 0.00 0.01 0.01 98 1015.3
20260905101536 66 25 1.0 3.0 0.00 0.01 0.01 98 1015.3